Flag for U.S.A. Weather past 2 weeks in Fort Myers, Florida, U.S.A.

Now
79 °F

Light rain. Scattered clouds.


Feels Like: 83 °F
Forecast: 76 / 86 °F
Wind: 7 mph from South

Location: Page Field

Current Time: Aug 31, 2015 at 2:11:50 PM

Latest Report: Aug 31, 2015 at 12:53 PM


Visibility: 10 mi

Pressure: 30.05 "Hg

Humidity: 88%

Dew point: 75 °F

Location of Fort MyersLocation

Historic Weather in Fort Myers — Graph

°F

Fort Myers temperature yesterday

Maximum temperature yesterday: 85 °F (at 2:53 PM)
Minimum temperature yesterday: 75 °F (at 12:53 AM)
Average temperature yesterday: 78 °F

Past Weeks' High & Low Weather Summary

 TemperatureHumidityPressure
High95 °F (Aug 23, 4:53 PM)100% (Aug 26, 10:53 PM)30.09 "Hg (Aug 26, 10:53 PM)
Low73 °F (Aug 17, 6:53 PM)44% (Aug 24, 1:53 PM)29.85 "Hg (Aug 24, 6:53 PM)
Average82 °F81%29.98 "Hg
* Reported Aug 16 12:53 PM — Aug 31 12:53 PM, Fort Myers, Weather by CustomWeather, © 2015

Note: Actual official high and low records may vary slightly from our data, if they occured in-between our weather recording intervals... More about our weather records

Advertising

Fort Myers weather history for previous 24 hours

 ConditionsComfort  
Time TempWeatherWind HumidityBarometerVisibility
12:53 PM
Mon, Aug 31
79 °FLight rain. Scattered clouds.7 mph88%30.05 "Hg10 mi
11:53 AM83 °FScattered clouds.10 mph77%30.05 "Hg10 mi
10:53 AM84 °FPassing clouds.12 mph72%30.04 "Hg10 mi
9:53 AM82 °FSunny.10 mph82%30.02 "Hg10 mi
8:53 AM81 °FSunny.8 mph85%30.01 "Hg10 mi
7:53 AM78 °FClear.6 mph93%30.00 "Hg10 mi
6:53 AM76 °FClear.8 mph97%29.97 "Hg10 mi
5:53 AM77 °FClear.7 mph94%29.97 "Hg10 mi
4:53 AM76 °FClear.7 mph100%29.97 "Hg10 mi
3:53 AM76 °FPassing clouds.6 mph100%29.98 "Hg10 mi
2:53 AM76 °FClear.7 mph97%29.98 "Hg10 mi
1:53 AM76 °FClear.7 mph97%29.98 "Hg10 mi
12:53 AM76 °FClear.6 mph97%30.00 "Hg10 mi
11:53 PM
Sun, Aug 30
75 °FLight rain. Overcast.6 mph100%30.02 "Hg10 mi
10:53 PM75 °FLight rain. Passing clouds.3 mph96%30.01 "Hg10 mi
9:53 PM75 °FLight rain. Overcast.6 mph96%30.00 "Hg10 mi
8:53 PM76 °FClear.7 mph94%29.97 "Hg10 mi
7:53 PM75 °FLight rain. Scattered clouds.3 mph96%29.97 "Hg10 mi
6:53 PM76 °FLight rain. Fog.7 mph97%29.97 "Hg6 mi
6:00 PM76 °FThundershowers. Fog.8 mph94%29.96 "Hg3 mi
4:53 PM78 °FThundershowers. Fog.13 mph90%29.97 "Hg2 mi
3:53 PM85 °FBroken clouds.6 mph75%29.95 "Hg10 mi
3:02 PM85 °FBroken clouds.6 mph77%29.95 "Hg10 mi
2:53 PM85 °FBroken clouds.8 mph77%29.96 "Hg10 mi
Weather by CustomWeather, © 2015

See weather overviewHow to use our weather pages